Weather in Pershino

Russia / Vladimir Oblast     56°08′05″N   38°44′11″E
temp.,
°C
wind,
m/s
gust,
m/s
humid.,
%
clouds,
%
prec.,
mm/h
press.,
hPa
HPBL,
m
23 october, sat
sat2300:00+6wsw613705 0.0 1001993
03:00+5sw51274100 0.0 1002813
06:00+5sw51275100 0.0 1001946
09:00+6sw6107697 0.0 10021090
12:00+7sw5116971 0.1 10031223
15:00+7wsw6126673 0.2 10041489
18:00+3w378197 0.2 1006257
21:00+4wsw4117788 0.3 1007616
24 october, sun
sun2400:00+3wsw4108541 0.0 1008501
03:00+4wsw3880100 0.0 1008587
06:00+3wsw3895100 0.1 1009723
09:00+3w3790100 0.3 1010703
12:00+3wnw51096100 0.4 1012692
15:00+1wnw41196100 1.1 1014673
18:00+1nnw6127696 0.2 10181286
21:000nnw512795 0.2 1021857
25 october, mon
mon2500:00−1nw5118824 0.0 1023566
03:00−2nw410915 0.0 1025371
06:00−2nw38935 0.0 1027280
09:00−1nw25836 0.0 1028289
12:00+2wsw3460100 0.0 1028770
15:00+3wsw3758100 0.0 1027817
18:00+1sw41169100 0.0 1026514
21:00+2sw41272100 0.0 1025550
26 october, tue
tue2600:00+1sw413785 0.0 1024484
03:000wsw4138619 0.0 1023436
06:000wsw4129089 0.0 1022398
09:00+1wsw41282100 0.0 1022452
12:00+5wsw41268100 0.0 1021536
15:00+5sw51267100 0.0 1020624
18:00+3sw41376100 0.0 1020441
21:00+3sw4137499 0.0 1020517
27 october, wed
wed2700:00+2sw4127894 0.0 1019446
03:00+2sw4128155 0.0 1019401
06:00+1sw4128372 0.0 1018376
09:00+2sw4137645 0.0 1017470
12:00+6sw5126386 0.0 1016624
15:00+6sw51162100 0.0 1015762
18:00+6wsw51169100 0.0 1015760
21:00+4w4996100 0.2 1015783